Regional Weather Roundup
Issued by NWS

Home | Current Version | Previous Version | Text Only | Print | Product List | Glossary Off
Versions: 1 2 3 4 5 6 7 8 9 10 11 12 13 14 15 16 17 18 19 20 21 22 23 24 25 26 27 28 29 30 31 32 33 34 35 36 37 38 39 40 41 42 43 44 45 46 47 48 49 50

000
ASUS43 KDTX 280610
RWRMI
MICHIGAN HOURLY REGIONAL WEATHER ROUNDUP
NATIONAL WEATHER SERVICE DETROIT/PONTIAC MI
200 AM EDT FRI AUG 28 2015

NOTE: "FAIR" INDICATES FEW OR NO CLOUDS BELOW 12,000 FEET WITH NO
SIGNIFICANT WEATHER AND/OR OBSTRUCTION TO VISIBILITY.

MIZ047>049-052>055-059>063-066>070-074>076-081>083-280700-
SOUTHEAST LOWER MICHIGAN

CITY           SKY/WX    TMP DP  RH WIND       PRES   REMARKS
ADRIAN         FAIR      51  49  92 CALM      30.18S
6HR MIN TEMP:  50; 6HR MAX TEMP:  64;

ALMA           FAIR      51  50  99 CALM      30.17S FOG
ANN ARBOR      FOG       46  45  96 CALM      30.17F VSB 1/4
BAD AXE        FAIR      47  47  97 S3        30.17S FOG
CARO           FAIR      49  49  97 CALM      30.17S FOG
DETROIT CITY   FAIR      55  52  89 CALM      30.18S
6HR MIN TEMP:  55; 6HR MAX TEMP:  64;

DETROIT        FAIR      58  53  84 CALM      30.18S
6HR MIN TEMP:  58; 6HR MAX TEMP:  66;

FLINT          FOG       49  45  86 CALM      30.18R VSB 1/2
6HR MIN TEMP:  47; 6HR MAX TEMP:  64;

GROSSE ILE     FAIR      61  54  77 E5        30.16F
HILLSDALE      FAIR      56  55  98 SE3       30.18S
HOWELL         FAIR      51  50  97 CALM      30.18S
6HR MIN TEMP:  51; 6HR MAX TEMP:  61;


CITY           SKY/WX    TMP DP  RH WIND       PRES   REMARKS
JACKSON        FAIR      54  52  93 CALM      30.17S
6HR MIN TEMP:  50; 6HR MAX TEMP:  62;

LAMBERTVILLE   FAIR      54  51  92 CALM      30.18S FOG
6HR MIN TEMP:  53; 6HR MAX TEMP:  66;

LANSING        FAIR      53  51  93 CALM      30.18S
6HR MIN TEMP:  53; 6HR MAX TEMP:  63;

LAPEER         MOCLDY    45  45 100 CALM      30.18S FOG
6HR MIN TEMP:  45; 6HR MAX TEMP:  60;

MASON          FOG       47  46  98 CALM      30.17S VSB 1/2
MONROE         FAIR      52  51  96 CALM      30.17S
6HR MIN TEMP:  51; 6HR MAX TEMP:  65;

MT. CLEMENS    FAIR      52  51  95 W1        30.15F
6HR MIN TEMP:  52; 6HR MAX TEMP:  63;

PONTIAC        FAIR      50  49  96 CALM      30.17S FOG
6HR MIN TEMP:  49; 6HR MAX TEMP:  62;

PORT HOPE        N/A     56  53  90 SW6       30.15S
6HR MIN TEMP:  55; 6HR MAX TEMP:  61;

PORT HURON     FOG       48  48 100 CALM      30.18S VSB 1/2
TRI CITIES     FAIR      58  53  84 SW6       30.17S
6HR MIN TEMP:  56; 6HR MAX TEMP:  66;

MIDLAND        FAIR      53  52  95 CALM      30.15F
TROY           FAIR      55  53  90 CALM      30.18F
SAGINAW HB     FAIR      52  50  93 S5        30.16S
$$
MIZ043>046-050>051-056>058-064>065-071>073-077>080-280700-
SOUTHWEST LOWER MICHIGAN

CITY           SKY/WX    TMP DP  RH WIND       PRES   REMARKS
BATTLE CREEK   MOCLDY    56  53  90 CALM      30.18R
6HR MIN TEMP:  55; 6HR MAX TEMP:  66;

BENTON HARBOR  FAIR      55  53  93 SE7       30.15S
6HR MIN TEMP:  52; 6HR MAX TEMP:  64;

BIG RAPIDS     MOCLDY    53  51  95 CALM      30.15S
6HR MIN TEMP:  53; 6HR MAX TEMP:  66;

COLDWATER      FAIR      55  54  97 CALM      30.17F
6HR MIN TEMP:  54; 6HR MAX TEMP:  63;

FREMONT        FAIR      55  55 100 SE5       30.14F
6HR MIN TEMP:  53; 6HR MAX TEMP:  65;

HOLLAND        FAIR      56  53  90 SE5       30.15F
6HR MIN TEMP:  54; 6HR MAX TEMP:  65;

GRAND RAPIDS   FAIR      55  54  96 CALM      30.17S
6HR MIN TEMP:  55; 6HR MAX TEMP:  65;

IONIA          FAIR      52  52  99 S3        30.16S FOG
6HR MIN TEMP:  51; 6HR MAX TEMP:  65;

KALAMAZOO      MOCLDY    58  53  84 CALM      30.18R
6HR MIN TEMP:  56; 6HR MAX TEMP:  66;

LUDINGTON      FAIR      56  54  92 CALM      30.13S
6HR MIN TEMP:  56; 6HR MAX TEMP:  66;

MARSHALL       FAIR      51  50  96 CALM      30.17S
6HR MIN TEMP:  50; 6HR MAX TEMP:  63;

MOUNT PLEASANT FAIR      59  54  84 SW3       30.16S
MUSKEGON       FAIR      56  52  86 SE7       30.14F
6HR MIN TEMP:  56; 6HR MAX TEMP:  65;

SOUTH HAVEN    FAIR      55  54  96 CALM      30.15F
$$
MIZ016>042-280700-
NORTHERN LOWER MICHIGAN

CITY           SKY/WX    TMP DP  RH WIND       PRES   REMARKS
ALPENA         MOCLDY    48  45  89 CALM      30.14S
6HR MIN TEMP:  48; 6HR MAX TEMP:  59;

BEAVER ISLAND  FAIR      61  59  93 SW5       30.09F
6HR MIN TEMP:  55; 6HR MAX TEMP:  62;

BELLAIRE       FOG       52  51  96 CALM      30.13F VSB 3/4
6HR MIN TEMP:  51; 6HR MAX TEMP:  66;

CADILLAC       FOG       50  48  91 CALM      30.14S VSB 1
CHARLEVOIX     FAIR      56  56  97 SE3       30.14S
6HR MIN TEMP:  56; 6HR MAX TEMP:  64;

FRANKFORT      FAIR      55  53  94 CALM      30.11F
GAYLORD        FAIR      56  54  93 CALM      30.14S
6HR MIN TEMP:  55; 6HR MAX TEMP:  67;

GRAYLING       FOG       53  52  97 CALM      30.15S VSB 1/2
6HR MIN TEMP:  53; 6HR MAX TEMP:  65;

HARBOR SPRINGS FAIR      54  53  95 CALM      30.11F
HOUGHTON LAKE  MOCLDY    54  53  97 S3        30.15S
6HR MIN TEMP:  54; 6HR MAX TEMP:  65;

MANISTEE       FAIR      54  48  82 E3        30.13S
OSCODA         FAIR      52  51  95 SW5       30.14S
6HR MIN TEMP:  50; 6HR MAX TEMP:  60;

PELLSTON       FOG       47  46  97 CALM      30.12S VSB 1/2
6HR MIN TEMP:  47; 6HR MAX TEMP:  66;

ROGERS CITY    FAIR      55  53  92 S5        30.13F
TRAVERSE CITY  FAIR      56  54  93 CALM      30.11F
6HR MIN TEMP:  56; 6HR MAX TEMP:  70;

$$
MIZ007>008-015-280700-
EASTERN UPPER MICHIGAN

CITY           SKY/WX    TMP DP  RH WIND       PRES   REMARKS
KINROSS        FAIR      55  55 100 S6        30.10F
6HR MIN TEMP:  52; 6HR MAX TEMP:  63;

MACKINAC ISLAN FAIR      58  56  94 S6        30.10S
6HR MIN TEMP:  55; 6HR MAX TEMP:  60;

NEWBERRY       FAIR      57  56  99 S6        30.08S
6HR MIN TEMP:  56; 6HR MAX TEMP:  60;

S. S. MARIE    CLOUDY    54  51  90 E3        30.10F
6HR MIN TEMP:  52; 6HR MAX TEMP:  63;

MUNISING         N/A     61  56  83 S8        30.04F
6HR MIN TEMP:  61; 6HR MAX TEMP:  69;

$$
MIZ004>006-011>014-085-280700-
CENTRAL UPPER MICHIGAN

CITY           SKY/WX    TMP DP  RH WIND       PRES   REMARKS
MANISTIQUE     FAIR      61  58  90 SW6       30.07F
6HR MIN TEMP:  60; 6HR MAX TEMP:  62;

ESCANABA       FAIR      61  57  88 SW8       30.06S
6HR MIN TEMP:  61; 6HR MAX TEMP:  64;

MENOMINEE      FAIR      61  54  77 SW8       30.07S
6HR MIN TEMP:  59; 6HR MAX TEMP:  66;

SAWYER-GWINN   FAIR      56  54  94 S6        30.06R
6HR MIN TEMP:  56; 6HR MAX TEMP:  68;

$$
MIZ001>003-009>011-084-280700-
WESTERN UPPER MICHIGAN

CITY           SKY/WX    TMP DP  RH WIND       PRES   REMARKS
IRON MOUNTAIN  FAIR      57  55  93 SE5       30.05S
6HR MIN TEMP:  56; 6HR MAX TEMP:  68;

HOUGHTON       FAIR      54  52  93 CALM      30.01S
6HR MIN TEMP:  50; 6HR MAX TEMP:  61;

COPPER HARBOR    N/A     60  51  72 SW8       29.98F
6HR MIN TEMP:  57; 6HR MAX TEMP:  61;

IRONWOOD       FAIR      64  57  77 SW3       29.99S
6HR MIN TEMP:  63; 6HR MAX TEMP:  70;

$$

ABBREVIATIONS USED IN REMARKS
   TC - TEMPERATURE IN CELSIUS
  WCI - WIND CHILL INDEX
   HX - HEAT INDEX
  VSB - VISIBILITY




USA.gov is the U.S. government's official web portal to all federal, state and local government web resources and services.